Estación de Catemito UST

Ultimos registro cada 15 minutos 67
Estación Fecha / Hora Temperatura Humedad Lluvia Velocidad Dirección Radiación Presion
67 Catemito UST 02-09-2026 21:15 13,9 76 0 0 286 0 1023,5
66 Catemito UST 02-09-2026 21:00 14,1 76 0 0,4 274 0 1023,3
65 Catemito UST 02-09-2026 20:30 14,3 75 0 0 259 0 1022,8
64 Catemito UST 02-09-2026 20:15 14,3 73 0 0 272 0 1022,7
63 Catemito UST 02-09-2026 20:00 14,9 72 0 0 246 0 1022,5
62 Catemito UST 02-09-2026 19:30 17,3 59 0 0,4 269 0 1021,1
61 Catemito UST 02-09-2026 19:15 16,5 66 0 0,4 255 0 1021,6
60 Catemito UST 02-09-2026 19:00 17 63 0 0,4 266 0 1021,2
59 Catemito UST 02-09-2026 18:30 20,6 55 0 0,4 280 53 1020,1
58 Catemito UST 02-09-2026 18:15 18 54 0 0,4 274 12 1020,6
57 Catemito UST 02-09-2026 18:00 18,5 53 0 0,4 240 25 1020,1
56 Catemito UST 02-09-2026 17:30 21,1 52 0 0,4 265 350 1019,9
55 Catemito UST 02-09-2026 17:15 21,7 50 0 0,4 274 163 1019,9
54 Catemito UST 02-09-2026 17:00 21,4 47 0 0,4 259 306 1019,8
53 Catemito UST 02-09-2026 16:30 21,9 50 0 0,4 262 403 1019,5
52 Catemito UST 02-09-2026 16:15 21,7 53 0 0,4 274 371 1019,8
51 Catemito UST 02-09-2026 16:00 22,3 51 0 0,4 280 367 1019,7
50 Catemito UST 02-09-2026 15:30 21,3 99 0 0,4 276 459 1019,4
49 Catemito UST 02-09-2026 15:15 21,8 49 0 0,4 292 367 1019,4
48 Catemito UST 02-09-2026 15:00 21,8 51 0 0,4 259 367 1019,3
47 Catemito UST 02-09-2026 14:30 21,8 99 0 0,4 197 585 1019,6
46 Catemito UST 02-09-2026 14:15 21,8 51 0 0,4 284 613 1019,6
45 Catemito UST 02-09-2026 14:00 21,5 55 0 0,4 297 636 1019,8
44 Catemito UST 02-09-2026 13:30 21,6 99 0 0,4 276 666 1020,5
43 Catemito UST 02-09-2026 13:15 21,8 59 0 0,4 285 670 1020,6
42 Catemito UST 02-09-2026 13:00 21,3 58 0 0,4 267 673 1020,5
41 Catemito UST 02-09-2026 12:30 21,1 99 0 0,4 290 759 1021,3
40 Catemito UST 02-09-2026 12:15 21,1 60 0 0,4 276 756 1021,2
39 Catemito UST 02-09-2026 12:00 21,9 62 0 0,4 296 664 1021,1
38 Catemito UST 02-09-2026 11:30 20,9 99 0 0,4 153 494 1021,4
37 Catemito UST 02-09-2026 11:15 20,3 63 0 0,4 101 696 1021,5
36 Catemito UST 02-09-2026 11:00 19,1 68 0 0,4 55 621 1021,6
35 Catemito UST 02-09-2026 10:30 18 99 0 0,4 278 582 1021,7
34 Catemito UST 02-09-2026 10:15 17,6 71 0 0,4 284 510 1021,8
33 Catemito UST 02-09-2026 10:00 17,1 72 0 0 125 487 1021,8
32 Catemito UST 02-09-2026 09:30 15,4 99 0 0 128 181 1022
31 Catemito UST 02-09-2026 09:15 14,7 83 0 0 86 144 1022,3
30 Catemito UST 02-09-2026 09:00 14,2 83 0 0 79 121 1022,4
29 Catemito UST 02-09-2026 08:30 12,4 99 0 0,4 279 53 1022,4
28 Catemito UST 02-09-2026 08:15 10,3 90 0 0 304 151 1022,1
27 Catemito UST 02-09-2026 08:00 9,7 90 0 0 125 25 1021,8
26 Catemito UST 02-09-2026 07:30 9,4 99 0 0 33 23 1021,3
25 Catemito UST 02-09-2026 07:15 9,7 89 0 0 33 5 1020,7
24 Catemito UST 02-09-2026 07:00 9,8 89 0 0 357 0 1020,6
23 Catemito UST 02-09-2026 06:30 9,8 99 0 0 107 0 1020,5
22 Catemito UST 02-09-2026 06:15 10,1 88 0 0 113 0 1020,5
21 Catemito UST 02-09-2026 06:00 10,2 88 0 0 45 0 1020,4
20 Catemito UST 02-09-2026 05:30 10,3 99 0 0 41 0 1020,4
19 Catemito UST 02-09-2026 05:15 10,2 87 0 0 41 0 1020,6
18 Catemito UST 02-09-2026 05:00 10,6 85 0 0 41 0 1020,4
17 Catemito UST 02-09-2026 04:30 11,3 99 0 0 68 0 1020,2
16 Catemito UST 02-09-2026 04:15 11,9 85 0 0 68 0 1020,4
15 Catemito UST 02-09-2026 04:00 12,2 83 0 0 68 0 1020,5
14 Catemito UST 02-09-2026 03:45 12,9 80 0 0 305 0 1020,5
13 Catemito UST 02-09-2026 03:30 13,6 99 0 0 305 0 1020,7
12 Catemito UST 02-09-2026 03:15 13,9 78 0 0 305 0 1020,9
11 Catemito UST 02-09-2026 03:00 14,2 77 0 0 305 0 1021
10 Catemito UST 02-09-2026 02:45 14,4 76 0 0 305 0 1021
9 Catemito UST 02-09-2026 02:30 14,2 99 0 0 305 0 1021,2
8 Catemito UST 02-09-2026 02:15 14,1 79 0 0 305 0 1021,4
7 Catemito UST 02-09-2026 02:00 14,2 79 0 0 305 0 1021,5
6 Catemito UST 02-09-2026 01:30 13,7 99 0 0 300 0 1021,4
5 Catemito UST 02-09-2026 01:15 13,5 82 0 0 349 0 1021,3
4 Catemito UST 02-09-2026 01:00 13,1 83 0 0 174 0 1021,4
3 Catemito UST 02-09-2026 00:30 13,1 99 0 0 174 0 1021,3
2 Catemito UST 02-09-2026 00:15 13,5 80 0 0 174 0 1020,9
1 Catemito UST 02-09-2026 00:00 13,8 79 0 0 98 0 1020,6